Manitowoc, WI

10:58 AM CST on December 15, 2017 (GMT -0600)
Manitowoc County

Weather History for KMTW - April, 2013

Change the Weather History Date:

Friday, April 12, 2013

  Actual Average Record
Temperature  
Mean Temperature 35 °F -  
Max Temperature 37 °F 50 °F 81 °F (1977)
Min Temperature 33 °F 32 °F 20 °F (1983)
Degree Days  
Heating Degree Days 30    
Moisture  
Dew Point 30 °F    
Average Humidity 85    
Maximum Humidity 93    
Minimum Humidity 75    
Precipitation  
Precipitation 0.06 in - - ()
Sea Level Pressure  
Sea Level Pressure 29.64 in    
Wind  
Wind Speed 9 mph (NNE)    
Max Wind Speed 14 mph    
Max Gust Speed 17 mph    
Visibility 8 miles    
Events      
Averages and records for this station are not official NWS values.
T = Trace of Precipitation, MM = Missing Value Source: NWS Daily Summary

Daily Weather History Graph

Daily Weather History Graph

Search for Another Location

Airport or City:

Trip Planner

Search our weather history database for the weather conditions in past years. The results will help you decide how hot, cold, wet, or windy it might be!

Date:

Astronomy

Apr. 12, 2013 Rise Set
Actual Time 6:12 AM CDT 7:31 PM CDT
Civil Twilight 5:42 AM CDT 8:01 PM CDT
Nautical Twilight 5:06 AM CDT 8:37 PM CDT
Astronomical Twilight 4:27 AM CDT 9:16 PM CDT
Moon 7:17 AM CDT (4/12) 10:07 PM CDT (4/12)
Length of Visible Light 14h 19m
Length of Day
13h 19m
Waxing Crescent, 5% of the Moon is Illuminated
Apr 12
Waxing Crescent
Apr 18
First Quarter
Apr 25
Full
May 2
Last Quarter
May 9
New

Hourly Weather History & Observations

Time (CDT) Temp. Windchill Dew Point Humidity Pressure Visibility Wind Dir Wind Speed Gust Speed Precip Events Conditions
12:15 AM 33.8 °F 24.3 °F 30.2 °F 87% 29.66 in 5.0 mi ENE 13.8 mph - N/A   Overcast
12:35 AM 33.8 °F 25.3 °F 30.2 °F 87% 29.65 in 7.0 mi ENE 11.5 mph - N/A   Overcast
12:55 AM 33.8 °F 25.8 °F 30.2 °F 87% 29.65 in 5.0 mi ENE 10.4 mph - N/A   Overcast
1:15 AM 33.8 °F 25.3 °F 30.2 °F 87% 29.64 in 5.0 mi ENE 11.5 mph - N/A   Overcast
1:35 AM 33.8 °F 25.3 °F 30.2 °F 87% 29.63 in 8.0 mi East 11.5 mph 17.3 mph N/A   Overcast
1:55 AM 33.8 °F 26.4 °F 32.0 °F 93% 29.62 in 7.0 mi ENE 9.2 mph - N/A   Overcast
2:15 AM 33.8 °F 25.8 °F 32.0 °F 93% 29.63 in 5.0 mi East 10.4 mph - N/A   Overcast
2:35 AM 33.8 °F 25.8 °F 30.2 °F 87% 29.62 in 5.0 mi East 10.4 mph - N/A   Overcast
2:55 AM 33.8 °F 26.4 °F 30.2 °F 87% 29.61 in 6.0 mi ENE 9.2 mph - 0.01 in   Overcast
3:15 AM 33.8 °F 26.4 °F 30.2 °F 87% 29.61 in 5.0 mi ENE 9.2 mph - N/A   Overcast
3:35 AM 33.8 °F 26.4 °F 30.2 °F 87% 29.60 in 5.0 mi ENE 9.2 mph - N/A   Overcast
3:55 AM 33.8 °F 25.3 °F 30.2 °F 87% 29.58 in 7.0 mi ENE 11.5 mph - 0.01 in   Overcast
4:15 AM 33.8 °F 26.4 °F 30.2 °F 87% 29.58 in 5.0 mi ENE 9.2 mph - N/A   Overcast
4:35 AM 33.8 °F 27.7 °F 30.2 °F 87% 29.58 in 8.0 mi ENE 6.9 mph - N/A   Overcast
4:55 AM 33.8 °F 27.7 °F 30.2 °F 87% 29.57 in 8.0 mi ENE 6.9 mph - N/A   Overcast
5:15 AM 33.8 °F 27.0 °F 30.2 °F 87% 29.57 in 5.0 mi ENE 8.1 mph - N/A   Overcast
5:35 AM 33.8 °F 28.6 °F 30.2 °F 87% 29.56 in 3.0 mi East 5.8 mph - N/A   Overcast
5:55 AM 33.8 °F 26.4 °F 32.0 °F 93% 29.56 in 4.0 mi ENE 9.2 mph - N/A   Overcast
6:15 AM 33.8 °F 28.6 °F 32.0 °F 93% 29.56 in 4.0 mi ENE 5.8 mph - N/A   Overcast
6:35 AM 33.8 °F 27.7 °F 32.0 °F 93% 29.57 in 3.0 mi ENE 6.9 mph - N/A   Overcast
6:55 AM 33.8 °F 27.0 °F 30.2 °F 87% 29.57 in 2.0 mi ENE 8.1 mph - 0.01 in   Overcast
7:15 AM 33.8 °F 26.4 °F 30.2 °F 87% 29.56 in 6.0 mi ENE 9.2 mph - N/A   Overcast
7:35 AM 33.8 °F 27.7 °F 30.2 °F 87% 29.56 in 1.5 mi ENE 6.9 mph - 0.01 in   Overcast
7:55 AM 33.8 °F 28.6 °F 30.2 °F 87% 29.56 in 5.0 mi NE 5.8 mph - 0.01 in   Overcast
8:15 AM 33.8 °F 30.8 °F 30.2 °F 87% 29.56 in 2.5 mi NNE 3.5 mph - 0.01 in   Overcast
8:35 AM 33.8 °F 28.6 °F 30.2 °F 87% 29.56 in 3.0 mi NE 5.8 mph - 0.01 in   Overcast
8:55 AM 33.8 °F 29.6 °F 30.2 °F 87% 29.56 in 4.0 mi NE 4.6 mph - 0.01 in   Overcast
9:15 AM 33.8 °F 28.6 °F 30.2 °F 87% 29.56 in 3.0 mi NNE 5.8 mph - N/A   Overcast
9:55 AM 33.8 °F 28.6 °F 32.0 °F 93% 29.57 in 5.0 mi NE 5.8 mph - 0.01 in   Overcast
10:15 AM 33.8 °F 29.6 °F 32.0 °F 93% 29.57 in 5.0 mi NE 4.6 mph - N/A   Overcast
10:35 AM 33.8 °F 29.6 °F 32.0 °F 93% 29.57 in 7.0 mi NNE 4.6 mph - N/A   Overcast
10:55 AM 33.8 °F 28.6 °F 32.0 °F 93% 29.58 in 8.0 mi North 5.8 mph - N/A   Overcast
11:15 AM 33.8 °F 27.0 °F 32.0 °F 93% 29.58 in 5.0 mi North 8.1 mph - N/A   Overcast
11:35 AM 33.8 °F 27.0 °F 30.2 °F 87% 29.58 in 5.0 mi NNE 8.1 mph - N/A   Overcast
11:55 AM 35.6 °F 28.0 °F 32.0 °F 87% 29.58 in 5.0 mi North 10.4 mph - N/A   Overcast
12:15 PM 33.8 °F 27.0 °F 30.2 °F 87% 29.59 in 6.0 mi North 8.1 mph - N/A   Overcast
12:35 PM 35.6 °F 29.9 °F 32.0 °F 87% 29.59 in 10.0 mi North 6.9 mph - N/A   Overcast
12:55 PM 35.6 °F 29.2 °F 32.0 °F 87% 29.59 in 10.0 mi North 8.1 mph - N/A   Overcast
1:15 PM 35.6 °F 29.2 °F 32.0 °F 87% 29.60 in 10.0 mi North 8.1 mph - N/A   Overcast
1:35 PM 35.6 °F 28.6 °F 30.2 °F 81% 29.60 in 10.0 mi NNW 9.2 mph - N/A   Overcast
1:55 PM 35.6 °F 29.9 °F 30.2 °F 81% 29.61 in 10.0 mi NNW 6.9 mph - N/A   Overcast
2:15 PM 35.6 °F 29.2 °F 30.2 °F 81% 29.62 in 10.0 mi NW 8.1 mph - N/A   Overcast
2:35 PM 35.6 °F 29.9 °F 30.2 °F 81% 29.63 in 10.0 mi NNW 6.9 mph - N/A   Overcast
2:55 PM 37.4 °F 30.8 °F 33.8 °F 87% 29.63 in 10.0 mi NW 9.2 mph - N/A   Overcast
3:15 PM 37.4 °F 29.8 °F 30.2 °F 75% 29.64 in 10.0 mi WNW 11.5 mph - N/A   Overcast
3:35 PM 35.6 °F 28.0 °F 30.2 °F 81% 29.65 in 10.0 mi NW 10.4 mph - N/A   Overcast
3:55 PM 35.6 °F 28.6 °F 32.0 °F 87% 29.66 in 10.0 mi NW 9.2 mph - N/A   Overcast
4:15 PM 35.6 °F 28.0 °F 30.2 °F 81% 29.66 in 9.0 mi WNW 10.4 mph - N/A   Overcast
4:35 PM 35.6 °F 27.5 °F 30.2 °F 81% 29.67 in 10.0 mi NW 11.5 mph - N/A   Overcast
4:55 PM 35.6 °F 28.6 °F 28.4 °F 75% 29.68 in 10.0 mi NW 9.2 mph - N/A   Overcast
5:15 PM 35.6 °F 27.5 °F 28.4 °F 75% 29.69 in 10.0 mi WNW 11.5 mph - N/A   Overcast
5:35 PM 33.8 °F 26.4 °F 28.4 °F 81% 29.70 in 10.0 mi NW 9.2 mph - N/A   Overcast
5:55 PM 33.8 °F 27.0 °F 28.4 °F 81% 29.71 in 10.0 mi NW 8.1 mph - N/A   Overcast
6:15 PM 33.8 °F 26.4 °F 28.4 °F 81% 29.71 in 10.0 mi NW 9.2 mph - N/A   Overcast
6:35 PM 33.8 °F 26.4 °F 28.4 °F 81% 29.72 in 10.0 mi NW 9.2 mph - N/A   Overcast
6:55 PM 33.8 °F 27.7 °F 28.4 °F 81% 29.72 in 10.0 mi NNW 6.9 mph - N/A   Overcast
7:15 PM 33.8 °F 27.0 °F 28.4 °F 81% 29.72 in 10.0 mi NNW 8.1 mph - N/A   Overcast
7:35 PM 33.8 °F 29.6 °F 28.4 °F 81% 29.73 in 10.0 mi NNW 4.6 mph - N/A   Overcast
7:55 PM 33.8 °F 28.6 °F 28.4 °F 81% 29.73 in 10.0 mi NNW 5.8 mph - N/A   Overcast
8:15 PM 33.8 °F 30.8 °F 28.4 °F 81% 29.73 in 10.0 mi NNW 3.5 mph - N/A   Overcast
8:35 PM 33.8 °F - 28.4 °F 81% 29.74 in 10.0 mi Calm Calm - N/A   Overcast
8:55 PM 33.8 °F - 28.4 °F 81% 29.74 in 10.0 mi Calm Calm - N/A   Overcast
9:15 PM 33.8 °F - 28.4 °F 81% 29.74 in 10.0 mi Calm Calm - N/A   Overcast
9:35 PM 33.8 °F - 28.4 °F 81% 29.75 in 10.0 mi Calm Calm - N/A   Overcast
9:55 PM 33.8 °F 30.8 °F 28.4 °F 81% 29.75 in 10.0 mi SW 3.5 mph - N/A   Overcast
10:15 PM 33.8 °F 30.8 °F 30.2 °F 87% 29.75 in 10.0 mi WSW 3.5 mph - N/A   Overcast
10:35 PM 33.8 °F - 28.4 °F 81% 29.75 in 10.0 mi Calm Calm - N/A   Overcast
10:55 PM 33.8 °F 28.6 °F 28.4 °F 81% 29.75 in 10.0 mi SW 5.8 mph - N/A   Overcast
11:15 PM 33.8 °F 28.6 °F 28.4 °F 81% 29.75 in 10.0 mi SW 5.8 mph - N/A   Overcast
11:35 PM 33.8 °F 29.6 °F 28.4 °F 81% 29.75 in 10.0 mi SW 4.6 mph - N/A   Overcast
11:55 PM 33.8 °F 29.6 °F 30.2 °F 87% 29.75 in 10.0 mi SW 4.6 mph - N/A   Overcast